This demonstration page uses our WeatherBlox Daily Observations layout. Learn more.

Left ArrowRight Arrow

41.12389, -100.76542

Hourly Observations for February 8, 2017

Temp ( °F °C ) Dew Point ( °F °C ) Humidity (%) Winds ( mph kmh ) Pressure ( in mb ) Visibility ( mi km ) Precip ( " mm )
12:15 am 00:15 Cloudy 19 -7.2 12 -11.1 74 74 ENE 6 9 30.03 1017 10 16 0.00 0.00
12:53 am 00:53 Cloudy 18 -7.8 11 -11.7 74 74 ENE 8 13 29.92 1013 10 16 0.00 0.00
1:53 am 01:53 Mostly Cloudy 17 -8.3 10 -12.2 74 74 ENE 7 11 29.91 1013 10 16 0.00 0.00
2:53 am 02:53 Cloudy 17 -8.3 11 -11.7 77 77 ENE 8 13 29.95 1014 10 16 0.00 0.00
3:53 am 03:53 Cloudy 16 -8.9 10 -12.2 77 77 NE 14 22 29.96 1015 10 16 0.00 0.00
4:53 am 04:53 Cloudy 14 -10 7 -13.9 73 73 NNE 12 19 30.05 1018 10 16 0.00 0.03
5:53 am 05:53 Cloudy 13 -10.6 6 -14.4 74 74 NNE 10 17 30.09 1019 10 16 0.00 0.00
6:08 am 06:08 Cloudy 12 -11 5 -15 73 73 NE 14 22 30.18 1022 10 16 0.00 0.00
6:53 am 06:53 Cloudy 13 -10.6 7 -13.9 77 77 NNE 10 17 30.13 1020 10 16 0.00 0.00
7:53 am 07:53 Cloudy 13 -10.6 6 -14.4 74 74 NNE 7 11 30.19 1022 10 16 0.00 0.00
8:53 am 08:53 Cloudy 13 -10.6 5 -15 70 70 N 12 19 30.25 1025 10 16 0.00 0.00
9:53 am 09:53 Mostly Sunny 15 -9.4 5 -15 64 64 N 13 20 30.28 1025 10 16 0.00 0.00
10:53 am 10:53 Mostly Sunny 17 -8.3 5 -15 59 59 N 10 17 30.29 1026 10 16 0.00 0.00
11:53 am 11:53 Mostly Sunny 20 -6.7 6 -14.4 55 55 NE 5 7 30.29 1026 10 16 0.00 0.00
12:53 pm 12:53 Sunny 22 -5.6 7 -13.9 52 52 VRB 5 7 30.27 1025 10 16 0.00 0.00
1:53 pm 13:53 Sunny 26 -3.3 8 -13.3 46 46 W 8 13 30.26 1025 10 16 0.00 0.00
2:53 pm 14:53 Sunny 28 -2.2 8 -13.3 43 43 WNW 5 7 30.23 1024 10 16 0.00 0.00
3:53 pm 15:53 Sunny 30 -1.1 9 -12.8 41 41 NNW 3 6 30.19 1023 10 16 0.00 0.00
4:53 pm 16:53 Sunny 29 -1.7 10 -12.2 45 45 SSW 5 7 30.21 1023 10 16 0.00 0.00
5:53 pm 17:53 Sunny 27 -2.8 11 -11.7 51 51 S 3 6 30.22 1024 10 16 0.00 0.00
6:53 pm 18:53 Clear 21 -6.1 12 -11.1 68 68 SE 3 6 30.27 1025 10 16 0.00 0.00
7:53 pm 19:53 Clear 20 -6.7 13 -10.6 74 74 E 6 9 30.28 1026 10 16 0.00 0.00
8:53 pm 20:53 Clear 19 -7.2 12 -11.1 74 74 ESE 6 9 30.31 1027 10 16 0.00 0.00
9:53 pm 21:53 Clear 18 -7.8 12 -11.1 77 77 E 5 7 30.32 1027 10 16 0.00 0.00
10:53 pm 22:53 Clear 18 -7.8 11 -11.7 74 74 ESE 7 11 30.32 1027 10 16 0.00 0.00
11:53 pm 23:53 Clear 18 -7.8 12 -11.1 77 77 ESE 6 9 30.32 1027 10 16 0.00 0.00

Powered by AerisWeather